Regional Weather Roundup
Issued by NWS

Home | Current Version | Previous Version | Text Only | Print | Product List | Glossary Off
Versions: 1 2 3 4 5 6 7 8 9 10 11 12 13 14 15 16 17 18 19 20 21 22 23 24 25 26 27 28 29 30 31 32 33 34 35 36 37 38 39 40 41 42 43 44 45 46 47 48 49 50

000
ASUS43 KIND 201809
RWRIN

WEATHER ROUNDUP FOR INDIANA
NATIONAL WEATHER SERVICE INDIANAPOLIS IN
200 PM EDT MON OCT 20 2014

NOTE: "FAIR" INDICATES FEW OR NO CLOUDS BELOW 12,000 FEET WITH NO
SIGNIFICANT WEATHER AND/OR OBSTRUCTIONS TO VISIBILITY.

* - STATION DOES NOT REPORT WEATHER SUCH AS PRECIPITATION OR FOG.

+ - STATION NOT QUALITY CONTROLLED BY THE NATIONAL WEATHER SERVICE.
    USE DATA WITH CAUTION...ESPECIALLY DEWPOINT AND RELATIVE
    HUMIDITY OBSERVATIONS.

INZ001>003-010>013-019-020-201900-
NORTHWEST INDIANA

CITY           SKY/WX    TMP DP  RH WIND       PRES   REMARKS
GARY /AIRPORT/ MOSUNNY   64  46  52 N10       29.85S
KNOX *+        SUNNY     62  47  57 NW9       29.81F
LA PORTE +     SUNNY     61  50  69 NW12      29.83F
6HR MIN TEMP:  47; 6HR MAX TEMP:  61; 6HR PCP:  0.23;

MICHIGAN CITY+ PTSUNNY   54  45  71 NW9       29.84F
MONTICELLO +   SUNNY     64  50  59 W9G18     29.82F
RENSSELAER +   SUNNY     64  50  59 W14       29.84F
VALPARAISO     SUNNY     60  47  61 NW10      29.83F
6HR MIN TEMP:  47; 6HR MAX TEMP:  61;


$$

LMZ046-743>745-201900-
SOUTHERN LAKE MICHIGAN

STATION/POSITION TIME  TEMP WIND        PRES
                       AIR  DIR/SP/G
                 (UTC) (F)  (DEG/KT/KT) (MB)
MICHIGAN CITY    1800   54  280/ 10/ 12   N/A

$$

INZ004-005-014>016-021>024-201900-
NORTH CENTRAL INDIANA

CITY           SKY/WX    TMP DP  RH WIND       PRES   REMARKS
ELKHART        CLOUDY    59  48  67 W10       29.82F
GOSHEN         CLOUDY    59  49  69 W10       29.81F
6HR MIN TEMP:  49; 6HR MAX TEMP:  59;

LOGANSPORT +   MOSUNNY   63  48  59 W13G21    29.83F
PERU/GRISSOM   SUNNY     61  54  78 W14G25    29.82F
6HR MIN TEMP:  51; 6HR MAX TEMP:  61; 6HR PCP: TRACE;

ROCHESTER +    MOSUNNY   64  50  59 W9        29.82F
SOUTH BEND     PTSUNNY   60  49  66 NW13      29.83S
6HR MIN TEMP:  49; 6HR MAX TEMP:  61; 6HR PCP:  0.03;

WARSAW +       CLOUDY    59  48  67 W9        29.81F

$$

INZ006>009-017-018-025>027-201900-
NORTHEAST INDIANA

CITY           SKY/WX    TMP DP  RH WIND       PRES   REMARKS
ANGOLA *+      CLOUDY    54  45  71 W5        29.80S
AUBURN +       MOSUNNY   59  46  63 SW10G16   29.81F
FORT WAYNE     CLOUDY    54  49  83 S10       29.83F
6HR MIN TEMP:  50; 6HR MAX TEMP:  55; 6HR PCP:  0.03;

HUNTINGTON +   CLOUDY    58  51  78 SW8       29.81F
6HR MIN TEMP:  49; 6HR MAX TEMP:  58; 6HR PCP:  0.04;


$$

INZ028-029-035-036-043>045-051>053-201900-
WEST CENTRAL INDIANA

CITY           SKY/WX    TMP DP  RH WIND       PRES   REMARKS
GREENCASTLE +  SUNNY     63  50  63 SW6       29.88F
LAFAYETTE      SUNNY     64  48  56 SW10G21   29.83F
6HR MIN TEMP:  51; 6HR MAX TEMP:  64; 6HR PCP: TRACE;

TERRE HAUTE    SUNNY     66  52  60 W7G17     29.88F
6HR MIN TEMP:  50; 6HR MAX TEMP:  67; 6HR PCP: TRACE;


$$

INZ030>032-037>040-046>048-054>057-064-065-201900-
CENTRAL INDIANA

CITY           SKY/WX    TMP DP  RH WIND       PRES   REMARKS
ANDERSON       MOSUNNY   57  50  77 SW12      29.87F
CP ATTERBURY + CLOUDY    61  50  67 W10G22    29.88S
COLUMBUS       MOSUNNY   64  54  68 SW17      29.87F
FRANKFORT +    SUNNY     64  51  60 SW12G21   29.86F HAZE
GREENWOOD *+   PTSUNNY   61  52  72 W9        29.87
INDIANAPOLIS   MOSUNNY   62  51  67 SW16      29.86F
6HR MIN TEMP:  49; 6HR MAX TEMP:  62; 6HR PCP: TRACE;

-EAGLE CREEK   MOSUNNY   61  50  67 W8G20     29.86F
6HR MIN TEMP:  50; 6HR MAX TEMP:  61; 6HR PCP:  0.01;

KOKOMO *+      MOSUNNY   63  50  63 SW13      29.83F
MARION +       CLOUDY    56  49  77 SW14      29.84F
MT COMFORT *+  PTSUNNY   59  52  77 SW9       29.87F
SHELBYVILLE    CLOUDY    60  53  77 W9        29.87
6HR MIN TEMP:  49; 6HR MAX TEMP:  65; 6HR PCP:  0.03;

ZIONSVILLE +   MOSUNNY   63  49  59 SW14G22   29.86F
6HR MIN TEMP:  50; 6HR MAX TEMP:  63;


$$

INZ033-034-041-042-049-050-058-059-201900-
EAST CENTRAL INDIANA

CITY           SKY/WX    TMP DP  RH WIND       PRES   REMARKS
MUNCIE         PTSUNNY   56  51  84 SW9       29.84F
6HR MIN TEMP:  51; 6HR MAX TEMP:  56; 6HR PCP:  0.13;


$$

INZ060-061-067>069-081>083-085>088-201900-
SOUTHWEST INDIANA

CITY           SKY/WX    TMP DP  RH WIND       PRES   REMARKS
EVANSVILLE     SUNNY     67  52  58 SW15      29.93F
6HR MIN TEMP:  51; 6HR MAX TEMP:  67; 6HR PCP: TRACE;

HUNTINGBURG *+ SUNNY     64  54  68 SW15G21   29.92F
6HR MIN TEMP:  48; 6HR MAX TEMP:  64;

WASHINGTON +   SUNNY     66  53  62 SW12      29.90F
6HR MIN TEMP:  50; 6HR MAX TEMP:  66;


$$

INZ062-063-066-070>080-084-089>092-201900-
SOUTH CENTRAL AND SOUTHEAST INDIANA

CITY           SKY/WX    TMP DP  RH WIND       PRES   REMARKS
BLOOMINGTON    PTSUNNY   63  50  62 W14       29.89F
6HR MIN TEMP:  49; 6HR MAX TEMP:  64;


$$




USA.gov is the U.S. government's official web portal to all federal, state and local government web resources and services.